Omaha Millard, NE

1:30 AM CST on November 17, 2019 (GMT -0600)
Millard Municipal

Weather History for KMLE - October, 2019

Change the Weather History Date:

Sunday, October 20, 2019

  Actual Average (WUND) Record (WUND)
Temperature  
Mean Temperature 53 °F -  
Max Temperature 63 °F - - (-1)
Min Temperature 43 °F - - (-1)
Degree Days  
Heating Degree Days 12    
Growing Degree Days 3 (Base 50)    
Moisture  
Dew Point 46 °F    
Average Humidity 76    
Maximum Humidity 95    
Minimum Humidity 46    
Precipitation  
Precipitation 0.05 in - - ()
Sea Level Pressure  
Sea Level Pressure 29.70 in    
Wind  
Wind Speed 5 mph (SE)    
Max Wind Speed 22 mph    
Max Gust Speed 30 mph    
Visibility 10 miles    
Events Rain    
Averages and records for this station are not official NWS values.
T = Trace of Precipitation, MM = Missing Value Source: NWS Daily Summary

Daily Weather History Graph

Daily Weather History Graph

Search for Another Location

Airport or City:

Astronomy

Oct. 20, 2019 Rise Set
Actual Time 7:41 AM CDT 6:36 PM CDT
Civil Twilight 7:13 AM CDT 7:04 PM CDT
Nautical Twilight 6:41 AM CDT 7:36 PM CDT
Astronomical Twilight 6:09 AM CDT 8:08 PM CDT
Moon 11:44 PM CDT (10/20) 2:12 PM CDT (10/20)
Length of Visible Light 11h 50m
Length of Day
10h 54m
Waning Gibbous, 59% of the Moon is Illuminated
Oct 20
Waning Gibbous
Oct 21
Last Quarter
Oct 27
New
Nov 4
First Quarter
Nov 12
Full

Hourly Weather History & Observations

Time (CDT) Temp. Windchill Dew Point Humidity Pressure Visibility Wind Dir Wind Speed Gust Speed Precip Events Conditions
12:15 AM 45.7 °F - 42.8 °F 90% 29.79 in 10.0 mi Calm Calm - N/A   Clear
12:35 AM 45.5 °F - 42.8 °F 90% 29.80 in 10.0 mi Calm Calm - N/A   Clear
12:55 AM 45.1 °F - 42.8 °F 91% 29.79 in 10.0 mi Calm Calm - N/A   Clear
1:15 AM 45.5 °F - 42.8 °F 90% 29.78 in 10.0 mi Calm Calm - N/A   Clear
1:35 AM 44.8 °F - 42.1 °F 90% 29.79 in 10.0 mi Calm Calm - N/A   Clear
1:55 AM 44.4 °F - 42.1 °F 91% 29.79 in 10.0 mi Calm Calm - N/A   Clear
2:15 AM 44.1 °F - 41.9 °F 92% 29.79 in 10.0 mi Calm Calm - N/A   Clear
2:35 AM 44.2 °F - 42.3 °F 93% 29.79 in 10.0 mi Calm Calm - N/A   Clear
2:55 AM 44.2 °F - 42.4 °F 93% 29.78 in 10.0 mi Calm Calm - N/A   Clear
3:15 AM 45.0 °F - 41.2 °F 87% 29.79 in 10.0 mi Calm Calm - N/A   Clear
3:35 AM 43.9 °F - 41.0 °F 90% 29.79 in 10.0 mi Calm Calm - N/A   Clear
3:55 AM 43.3 °F - 41.4 °F 93% 29.78 in 10.0 mi Calm Calm - N/A   Clear
4:15 AM 43.7 °F - 41.9 °F 93% 29.79 in 10.0 mi Calm Calm - N/A   Clear
4:40 AM 43.0 °F - 41.4 °F 94% 29.78 in 10.0 mi Calm Calm - N/A   Clear
5:15 AM 43.0 °F - 41.5 °F 95% 29.78 in 10.0 mi Calm Calm - N/A   Clear
5:35 AM 43.7 °F - 41.9 °F 93% 29.78 in 10.0 mi Calm Calm - N/A   Clear
5:55 AM 43.9 °F - 41.9 °F 93% 29.78 in 10.0 mi Calm Calm - N/A   Clear
6:15 AM 45.1 °F 43.7 °F 42.6 °F 91% 29.78 in 10.0 mi SE 3.5 mph - N/A   Clear
6:35 AM 46.0 °F 43.9 °F 42.4 °F 87% 29.78 in 10.0 mi SE 4.6 mph - N/A   Clear
6:55 AM 46.6 °F - 42.8 °F 87% 29.78 in 10.0 mi SE 3.5 mph - N/A   Clear
7:15 AM 46.4 °F 45.2 °F 42.8 °F 87% 29.78 in 10.0 mi ESE 3.5 mph - N/A   Clear
7:35 AM 47.3 °F - 43.5 °F 87% 29.77 in 10.0 mi SE 5.8 mph - N/A   Clear
7:55 AM 47.3 °F - 43.7 °F 87% 29.77 in 10.0 mi SE 5.8 mph - N/A   Clear
8:15 AM 48.2 °F - 44.6 °F 87% 29.77 in 10.0 mi SE 4.6 mph - N/A   Clear
8:35 AM 49.3 °F - 46.0 °F 89% 29.77 in 10.0 mi SE 5.8 mph - N/A   Clear
8:55 AM 51.1 °F - 48.0 °F 89% 29.78 in 10.0 mi SE 5.8 mph - N/A   Clear
9:15 AM 52.2 °F - 48.7 °F 88% 29.79 in 10.0 mi SE 6.9 mph - N/A   Clear
9:35 AM 52.7 °F - 49.3 °F 88% 29.79 in 10.0 mi SE 8.1 mph - N/A   Clear
9:55 AM 53.6 °F - 50.0 °F 88% 29.79 in 10.0 mi ESE 5.8 mph - N/A   Clear
10:15 AM 54.7 °F - 50.7 °F 86% 29.78 in 10.0 mi SE 10.4 mph - N/A   Clear
10:35 AM 55.8 °F - 50.9 °F 84% 29.77 in 10.0 mi SE 13.8 mph 17.3 mph N/A   Clear
10:55 AM 58.1 °F - 51.4 °F 78% 29.77 in 10.0 mi SE 15.0 mph 21.9 mph N/A   Clear
11:15 AM 58.3 °F - 51.1 °F 77% 29.75 in 10.0 mi ESE 17.3 mph 23.0 mph N/A   Clear
11:35 AM 59.4 °F - 50.9 °F 74% 29.73 in 10.0 mi SE 21.9 mph 29.9 mph N/A   Clear
11:55 AM 60.8 °F - 51.3 °F 71% 29.73 in 10.0 mi SE 17.3 mph 21.9 mph N/A   Clear
12:15 PM 61.5 °F - 51.3 °F 69% 29.71 in 10.0 mi SE 19.6 mph 27.6 mph N/A   Clear
12:35 PM 61.7 °F - 48.9 °F 63% 29.70 in 10.0 mi SE 17.3 mph 27.6 mph N/A   Clear
12:55 PM 62.6 °F - 47.7 °F 58% 29.73 in 10.0 mi SSE 16.1 mph 23.0 mph N/A   Scattered Clouds
1:15 PM 63.1 °F - 47.3 °F 56% 29.74 in 10.0 mi SSE 10.4 mph 19.6 mph N/A   Scattered Clouds
1:35 PM 62.6 °F - 49.3 °F 62% 29.73 in 10.0 mi SSE 13.8 mph - N/A   Mostly Cloudy
1:55 PM 62.1 °F - 48.4 °F 61% 29.72 in 10.0 mi SSE 13.8 mph 18.4 mph N/A   Mostly Cloudy
2:15 PM 60.8 °F - 49.3 °F 66% 29.69 in 10.0 mi ESE 6.9 mph - N/A Rain Light Rain
2:35 PM 62.4 °F - 49.3 °F 62% 29.69 in 10.0 mi SSE 8.1 mph - N/A   Overcast
2:55 PM 62.2 °F - 47.8 °F 59% 29.66 in 10.0 mi SE 9.2 mph - N/A   Overcast
3:15 PM 62.6 °F - 46.4 °F 55% 29.64 in 10.0 mi ESE 9.2 mph 17.3 mph N/A   Overcast
3:35 PM 62.6 °F - 45.5 °F 54% 29.65 in 10.0 mi SE 9.2 mph 18.4 mph N/A   Overcast
3:55 PM 62.8 °F - 45.3 °F 53% 29.63 in 10.0 mi SE 11.5 mph 21.9 mph N/A   Overcast
4:15 PM 62.6 °F - 45.7 °F 54% 29.64 in 10.0 mi SE 15.0 mph 18.4 mph N/A   Overcast
4:35 PM 62.8 °F - 41.5 °F 46% 29.62 in 10.0 mi SE 15.0 mph 26.5 mph N/A   Overcast
4:55 PM 62.6 °F - 42.1 °F 47% 29.61 in 10.0 mi SE 13.8 mph 21.9 mph N/A   Mostly Cloudy
5:15 PM 62.8 °F - 42.6 °F 48% 29.60 in 10.0 mi ESE 16.1 mph 25.3 mph N/A   Mostly Cloudy
5:35 PM 62.6 °F - 43.2 °F 49% 29.61 in 10.0 mi SE 19.6 mph 24.2 mph N/A   Overcast
5:55 PM 61.9 °F - 43.3 °F 51% 29.62 in 10.0 mi SE 18.4 mph 25.3 mph N/A   Mostly Cloudy
6:15 PM 60.8 °F - 44.2 °F 54% 29.62 in 10.0 mi SE 15.0 mph 20.7 mph N/A   Overcast
6:35 PM 60.8 °F - 44.6 °F 55% 29.63 in 10.0 mi SE 12.7 mph 20.7 mph N/A   Overcast
6:55 PM 59.9 °F - 44.8 °F 57% 29.62 in 10.0 mi SE 15.0 mph 18.4 mph N/A   Overcast
7:15 PM 59.5 °F - 45.0 °F 59% 29.62 in 10.0 mi SE 10.4 mph 17.3 mph N/A   Overcast
7:35 PM 58.5 °F - 46.0 °F 63% 29.62 in 10.0 mi SE 10.4 mph - N/A Rain Light Rain
7:55 PM 57.9 °F - 45.9 °F 64% 29.62 in 10.0 mi SE 11.5 mph - N/A   Overcast
8:15 PM 58.5 °F - 45.3 °F 62% 29.61 in 10.0 mi SE 12.7 mph 17.3 mph N/A   Overcast
8:35 PM 57.2 °F - 47.5 °F 70% 29.61 in 10.0 mi SE 10.4 mph 21.9 mph 0.02 in Rain Light Rain
8:55 PM 58.1 °F - 47.5 °F 68% 29.63 in 10.0 mi SSW 8.1 mph - 0.02 in Rain Light Rain
9:15 PM 55.8 °F - 49.1 °F 78% 29.64 in 7.0 mi SSW 4.6 mph - 0.03 in Rain Light Rain
9:35 PM 55.6 °F - 49.3 °F 79% 29.61 in 10.0 mi SE 8.1 mph - 0.03 in   Mostly Cloudy
9:55 PM 54.9 °F - 49.6 °F 83% 29.60 in 10.0 mi SE 5.8 mph - 0.03 in   Scattered Clouds
10:15 PM 54.1 °F - 50.0 °F 86% 29.60 in 10.0 mi ESE 8.1 mph - N/A   Scattered Clouds
10:35 PM 54.7 °F - 50.0 °F 84% 29.58 in 10.0 mi ESE 5.8 mph - N/A   Scattered Clouds
10:55 PM 53.6 °F - 49.8 °F 87% 29.57 in 10.0 mi SE 3.5 mph - N/A   Clear
11:15 PM 53.6 °F - 50.2 °F 88% 29.55 in 10.0 mi Calm Calm - N/A   Clear
11:35 PM 52.2 °F - 50.0 °F 92% 29.53 in 10.0 mi ESE 3.5 mph - N/A   Clear
11:55 PM 52.2 °F - 50.0 °F 92% 29.51 in 10.0 mi SE 4.6 mph - N/A   Clear